Location: Saint-Usage
(47.1052°N, 5.2587°E)
Time: 17:27:33
(UTC+02:00)

Tiangong - Visible Passes

Search period start: 20 September 2021 00:00
Search period end: 30 September 2021 00:00
Orbit: 380 x 386 km, 41.5° (Epoch: 18 September)

Date Brightness Start Highest point End Pass type
(mag) Time Alt. Az. Time Alt. Az. Time Alt. Az.
25 Sep 4.0 06:57:54 10° S 06:58:50 11° SSE 06:59:46 10° SE visible
27 Sep 3.5 06:31:48 10° SSW 06:33:44 15° SSE 06:35:42 10° ESE visible
28 Sep 3.9 05:33:10 11° SSE 05:33:10 11° SSE 05:33:49 10° SE visible
29 Sep 3.0 06:07:20 17° SSW 06:08:22 20° SSE 06:10:47 10° ESE visible
